STARLINK-1273, 45367

Orbit data source: Space-Track

STARLINK-1273, 45367 is a payload satellite owned by SpaceX/Seattle (US) in LEO that was launched on Wed, 18 Mar 2020 UTC via an FALCON 9 launch vehicle from the Air Force Eastern Test Range (AFETR). Payload-class satellites include a variety of spacecraft equipped with specific instruments for various scientific and technological missions. These include communications satellites like Starlink; space stations such as the ISS; scientific satellites like the Hubble; Earth observation satellites from companies like Planet Labs, Umbra, and HawkEye 360; GPS; miniature CubeSats for education and research; and military/defense satellites.

Loading next visibility...
Identifier
45367, 2020-019H
Orbit
LEO
Country
Flag of USUS
Related business
Manufacturer
SpaceX/Seattle
Mission
Partially operational Commercial Communications
Bus & Motor
STARLINK, Unknown motor
Mass
260 kg wet, ~248 kg dry
Launch date (UTC)
2020-03-18 (6 years ago)
Launch vehicle
FALCON 9
Launch site
Air Force Eastern Test Range (AFETR)
Object type
Payload
Rocket body
Debris
Shape & HBR
Box + 1 Pan, 10.1 m
Radar Cross Section
13.562 m², Large (>1 m²)

Expand to show TLE details & history
Last TLE update: 11 hours ago

TLE from 11 hours ago
0 STARLINK-1273
1 45367U 20019H   26072.54634002  .00089678  00000-0  18643-2 0  9990
2 45367  53.0508 136.4600 0003019  16.2329 343.8773 15.44917956330499
Epoch: 2026-03-13T13:06Z
TLE epoch observation values (Epoch: 2026-03-13T13:06:43.777Z)
Latitude
-0.00003°
Longitude
128.59725°
Altitude
430.538 km
Speed
7.656 km/s
True Right ascension
09h 05m 50s
True Declination
0° 00' 00"
Sunlit
Object was in full shadow at epoch
Visualization orbit readout
Latitude
Unknown
Longitude
Unknown
Altitude
Unknown
Speed
Unknown
Apparent Right ascension
Unknown
Apparent Declination
Unknown
Sunlit
N/A
Visualization observer readout
Local Sidereal Time
04:31:07
Azimuth
Unknown
Elevation
Unknown
Doppler factor
Unknown
Orbital elements
Apogee altitude
433.951 km
Perigee altitude
429.839 km
Semi-major axis
6,810.032 km
Eccentricity
0.0003
Inclination
53.0508°
RAAN
136.46°
Arg. of periapsis
16.2329°
True anomaly
343.86769°
Mean anomaly
343.8773°
Eccentric anomaly
343.8725°
Mean motion
3.86206 °/min
Orbital period
93.21 mins
BSTAR
0.0018643
Loading maneuver chart data...
Computing Atmospheric mass density...
Loading historical data...
Loading historical data...
Loading historical data...
Loading historical data...
Loading historical data...
Loading historical data...
Loading historical data...

Documentation

Showing up to 5 results
|